Weather History for Ann Arbor, MI

Change the Weather History Date:

Wednesday, December 5, 2012

  Actual Average Record
Temperature  
Mean Temperature 32 °F -  
Max Temperature 39 °F 39 °F 66 °F (2001)
Min Temperature 26 °F 24 °F 5 °F (2007)
Degree Days  
Heating Degree Days 32    
Moisture  
Dew Point 21 °F    
Average Humidity 65    
Maximum Humidity 81    
Minimum Humidity 48    
Precipitation  
Precipitation 0.00 in - - ()
Sea Level Pressure  
Sea Level Pressure 30.34 in    
Wind  
Wind Speed 8 mph (North)    
Max Wind Speed 14 mph    
Max Gust Speed 25 mph    
Visibility 10 miles    
Events      
Averages and records for this station are not official NWS values.
T = Trace of Precipitation, MM = Missing Value Source: NWS Daily Summary

Daily Weather History Graph

Daily Weather History Graph

Search for Another Location

Airport:

Trip Planner

Search our weather history database for the weather conditions in past years. The results will help you decide how hot, cold, wet, or windy it might be!

Date:

Astronomy

Dec. 05, 2012 Rise Set
Actual Time 7:48 AM EST 5:02 PM EST
Civil Twilight 7:17 AM EST 5:34 PM EST
Nautical Twilight 6:42 AM EST 6:09 PM EST
Astronomical Twilight 6:08 AM EST 6:43 PM EST
Moon 11:57 PM EST (12/5) 12:06 PM EST (12/5)
Length of Visible Light 10h 17m
Length of Day
9h 14m
Waning Gibbous, 60% of the Moon is Illuminated
Dec 5
Waning Gibbous
Dec 6
Last Quarter
Dec 13
New
Dec 20
First Quarter
Dec 28
Full

Hourly Weather History & Observations

Time (EST) Temp. Windchill Dew Point Humidity Pressure Visibility Wind Dir Wind Speed Gust Speed Precip Events Conditions
12:53 AM 39.0 °F 34.0 °F 28.9 °F 67% 30.16 in 10.0 mi WNW 6.9 mph - N/A   Clear
1:53 AM 37.9 °F 30.5 °F 28.9 °F 70% 30.18 in 10.0 mi NW 11.5 mph - N/A   Clear
2:53 AM 36.0 °F 30.3 °F 27.0 °F 70% 30.20 in 10.0 mi NW 6.9 mph - N/A   Clear
3:53 AM 34.0 °F 28.0 °F 26.1 °F 73% 30.24 in 10.0 mi NNW 6.9 mph - N/A   Clear
4:53 AM 33.1 °F 23.4 °F 23.0 °F 66% 30.27 in 10.0 mi NNW 13.8 mph 18.4 mph N/A   Clear
5:53 AM 30.9 °F 21.2 °F 19.9 °F 64% 30.29 in 10.0 mi NNW 12.7 mph - N/A   Clear
6:53 AM 28.9 °F 18.2 °F 18.0 °F 64% 30.32 in 10.0 mi NNW 13.8 mph 25.3 mph N/A   Clear
7:53 AM 28.0 °F 18.6 °F 18.0 °F 66% 30.36 in 10.0 mi NNW 10.4 mph - N/A   Clear
9:53 AM 32.0 °F 24.8 °F 18.0 °F 56% 30.39 in 10.0 mi NNW 8.1 mph - N/A   Clear
10:53 AM 34.0 °F 25.5 °F 18.0 °F 52% 30.41 in 10.0 mi North 11.5 mph - N/A   Clear
11:53 AM 36.0 °F 28.5 °F 19.0 °F 50% 30.39 in 10.0 mi North 10.4 mph - N/A   Clear
12:53 PM 37.9 °F 30.5 °F 19.9 °F 48% 30.38 in 10.0 mi North 11.5 mph 19.6 mph N/A   Clear
1:53 PM 37.9 °F 32.7 °F 19.9 °F 48% 30.38 in 10.0 mi North 6.9 mph - N/A   Clear
2:53 PM 37.9 °F 35.5 °F 19.9 °F 48% 30.38 in 10.0 mi NE 3.5 mph - N/A   Clear
3:53 PM 37.0 °F 34.5 °F 21.0 °F 52% 30.39 in 10.0 mi NNE 3.5 mph - N/A   Clear
4:53 PM 34.0 °F 28.8 °F 19.9 °F 56% 30.40 in 10.0 mi NNE 5.8 mph - N/A   Clear
5:53 PM 28.0 °F - 21.0 °F 75% 30.40 in 10.0 mi Calm Calm - N/A   Clear
6:53 PM 28.0 °F - 23.0 °F 81% 30.40 in 10.0 mi Calm Calm - N/A   Clear
7:53 PM 28.0 °F 22.8 °F 19.9 °F 72% 30.41 in 10.0 mi SE 4.6 mph - N/A   Clear
8:53 PM 28.0 °F 22.8 °F 19.9 °F 72% 30.40 in 10.0 mi SE 4.6 mph - N/A   Clear
9:53 PM 26.1 °F - 21.0 °F 81% 30.40 in 10.0 mi Calm Calm - N/A   Clear
10:53 PM 26.1 °F 21.9 °F 21.0 °F 81% 30.39 in 10.0 mi ESE 3.5 mph - N/A   Clear
11:20 PM 26.6 °F 21.2 °F 21.2 °F 80% 30.35 in 10.0 mi ESE 4.6 mph - N/A   Mostly Cloudy
11:53 PM 28.0 °F 24.2 °F 21.9 °F 78% 30.38 in 10.0 mi ESE 3.5 mph - N/A   Overcast